Temperature
24 24 23 24 30 31 29 29 30 29 29 28 27 27 27 27 26 24 21 20 20 19 18 19 19 19 19 19 19 19 19 19 19 18 18 18 18 18 18 18 18 18 18 18 18 18 18 18 17
24 24 24 28 32 30 29 30 29 29 28 27 26 26 26 24 22 21 20 20 19 19 18 18 19 19 19 19 19 19 19 19 18 18 18 18 18 18 18 18 18 18 18 18 18 18 18 18 17
24 24 28 32 31 30 29 30 29 28 27 27 27 26 25 23 21 21 20 19 19 19 18 19 19 19 19 19 19 19 19 19 18 18 18 18 18 18 18 18 18 18 18 18 18 18 18 18 17
24 27 30 32 30 30 30 30 29 29 28 27 27 26 24 22 21 21 20 19 19 19 18 19 19 19 19 19 19 19 19 18 18 18 18 18 18 18 18 18 18 18 18 18 18 18 18 18 18
26 31 32 32 31 31 31 30 30 30 29 27 27 26 23 21 20 20 19 19 19 19 18 18 19 19 19 19 19 18 18 18 18 18 18 18 18 18 18 18 18 18 18 18 18 17 17 17 17
30 33 32 31 31 31 31 30 30 30 28 27 27 26 22 20 20 20 20 20 20 19 19 18 19 19 19 19 18 19 18 18 18 18 18 18 18 18 18 18 18 18 18 18 17 17 17 17 17
31 33 32 31 31 31 31 30 30 30 29 28 27 26 23 21 20 20 20 20 20 19 19 18 18 19 19 19 19 18 18 18 18 18 18 18 18 18 18 18 18 18 18 17 17 17 17 17 17
30 33 32 32 31 31 31 30 29 29 28 27 27 27 24 21 20 20 20 19 19 19 19 18 18 18 18 18 18 18 18 18 18 18 18 18 18 18 18 18 18 18 17 17 17 17 17 17 17
30 33 32 32 32 31 31 31 29 28 28 27 26 26 24 21 20 20 20 19 19 19 19 18 18 18 18 18 18 18 18 18 18 18 18 17 17 17 17 17 18 18 17 17 17 17 17 17 17
32 32 32 32 32 32 31 31 30 29 28 27 25 23 22 21 20 20 20 19 19 18 18 18 18 18 18 18 17 17 17 18 17 17 17 17 17 17 17 17 18 18 18 17 17 17 17 17 17
32 32 32 32 31 31 31 31 30 31 30 29 26 23 21 21 20 20 20 20 19 19 18 18 18 18 18 18 17 17 17 17 17 17 17 17 17 17 17 17 17 17 17 17 17 17 17 17 17
32 32 31 32 31 31 31 31 31 31 30 28 26 24 22 21 21 21 21 20 19 19 19 19 18 18 18 18 17 17 17 17 17 17 17 17 17 17 17 17 17 17 17 17 17 17 17 17 17
32 32 31 31 31 31 31 31 31 30 29 27 25 23 22 22 22 21 21 20 19 19 19 19 18 18 18 18 18 17 17 17 17 17 17 17 17 17 17 17 17 17 17 17 17 17 17 17 17
31 31 32 32 31 31 31 31 31 30 28 26 25 23 23 23 22 21 20 20 19 19 19 19 19 19 19 18 18 18 17 17 17 17 17 17 17 17 17 17 17 17 17 17 17 17 17 17 17
30 32 33 32 32 31 31 32 31 29 28 27 25 24 23 22 22 21 21 20 20 20 20 19 19 19 19 19 18 18 17 17 17 17 17 17 17 17 17 17 17 17 17 17 17 17 17 17 17
32 32 32 32 32 31 32 32 31 29 28 27 26 24 23 22 22 21 21 21 21 20 20 20 19 19 19 19 18 18 18 17 17 17 17 17 17 17 17 17 17 17 17 17 17 17 17 17 17
32 32 32 32 32 32 32 32 31 29 29 28 26 25 23 22 22 21 21 21 21 21 20 20 19 19 19 19 19 18 18 18 17 17 17 17 17 17 17 17 17 17 17 17 17 17 17 17 17
31 32 32 32 32 32 32 32 31 29 29 29 27 26 24 23 22 21 21 20 21 21 20 20 20 19 19 18 18 18 18 18 17 17 17 17 17 17 17 17 17 17 17 17 17 17 17 17 17
31 31 31 31 31 31 31 31 31 30 29 29 28 26 25 23 22 21 21 20 20 21 20 20 20 19 19 18 18 18 18 18 18 17 17 17 17 17 17 17 17 17 17 17 17 17 17 17 17
30 31 31 31 31 31 31 31 31 30 29 28 28 26 25 24 22 21 21 20 20 20 20 20 20 19 19 19 18 18 18 17 17 17 17 17 17 17 17 17 17 17 17 17 17 17 17 17 17
30 31 31 31 31 31 31 31 31 30 28 28 27 27 26 25 23 22 21 21 20 20 20 20 20 19 19 18 18 18 17 17 17 17 17 17 17 17 17 17 17 17 17 17 17 17 17 17 17
30 30 30 30 31 31 31 31 31 31 30 29 28 27 26 25 24 22 21 21 21 20 20 20 20 19 19 19 18 18 17 17 17 17 17 17 17 17 17 17 17 17 17 17 17 17 17 17 17
30 30 30 30 30 31 31 31 32 31 30 30 29 28 27 25 24 22 22 21 21 20 20 20 20 19 19 18 18 18 17 17 17 17 17 17 17 17 17 17 17 17 17 17 17 17 17 17 17
29 29 30 30 31 30 30 30 31 32 31 31 30 28 26 25 24 22 22 21 21 20 20 19 19 19 19 18 18 18 17 17 17 17 17 17 17 17 17 17 17 17 17 17 17 17 17 17 17
29 30 29 29 29 30 30 30 31 31 31 30 29 28 26 25 24 22 22 21 20 20 20 19 19 19 19 18 18 18 17 17 17 17 17 17 17 17 17 17 17 17 17 17 17 17 17 17 17
29 30 29 29 29 30 29 30 31 31 30 29 28 27 26 25 24 22 22 21 21 20 20 19 19 19 19 18 18 18 17 17 17 17 17 17 17 17 17 17 17 17 17 17 17 17 17 16 16
29 30 32 31 30 30 30 30 31 31 30 29 28 27 26 25 24 23 22 21 21 20 20 19 19 19 19 18 18 18 17 17 17 17 17 17 17 17 17 17 17 17 17 17 17 17 16 16 16
30 31 30 30 28 29 29 30 30 30 30 29 28 27 26 25 24 23 22 21 21 20 20 19 19 19 19 18 18 18 17 17 17 17 17 17 17 17 17 17 17 17 17 17 17 16 16 16 16
28 29 30 30 30 29 29 30 32 31 30 30 29 27 26 25 24 23 22 21 20 20 20 19 19 19 18 18 18 18 17 17 17 17 17 17 17 17 17 17 16 16 16 16 16 16 16 16 16
30 30 29 29 28 29 30 30 31 31 30 29 28 27 25 24 24 23 22 21 20 20 19 19 19 18 18 18 18 18 17 17 17 17 17 17 17 17 17 16 16 16 16 16 16 16 16 16 16
Wind_Speed
7 6 5 4 2 10 16 13 11 9 8 8 7 5 7 8 6 9 11 15 16 16 17 15 13 14 14 14 15 15 15 15 14 14 13 13 13 13 13 14 14 14 15 15 14 14 14 15 15
3 4 5 3 6 12 14 12 12 11 9 8 7 6 8 8 8 11 13 15 16 16 16 15 15 14 14 14 14 14 14 14 13 13 13 13 13 13 13 13 14 14 14 14 14 14 15 15 15
4 5 3 3 11 13 13 10 10 9 7 5 6 7 6 7 9 10 14 18 16 15 15 16 15 14 14 14 14 14 14 13 13 13 13 13 13 13 13 14 14 14 14 14 14 14 14 15 15
4 4 2 7 13 12 10 8 8 8 8 6 7 9 7 7 6 11 17 17 16 15 15 17 14 14 13 13 13 13 13 13 12 13 13 13 13 13 13 14 14 14 14 14 14 14 14 14 14
5 2 4 10 12 9 7 6 5 6 6 7 7 10 8 6 10 16 17 16 16 14 15 17 14 14 13 13 13 13 12 12 12 13 13 13 13 13 13 14 14 14 13 13 13 13 13 13 13
3 1 6 10 11 8 6 5 5 7 8 8 9 10 7 8 13 16 16 15 14 14 15 17 14 13 12 12 12 12 12 12 12 12 12 13 13 13 13 13 13 13 12 12 12 12 12 12 12
2 4 9 10 9 8 6 4 4 6 7 6 6 8 8 11 14 15 14 13 13 13 14 15 15 14 12 12 11 11 11 11 11 11 12 12 12 12 12 12 12 12 11 11 11 11 12 12 11
3 2 8 9 9 9 5 4 4 4 6 7 4 6 9 14 15 15 14 13 12 12 12 12 13 13 13 12 11 11 10 11 11 11 11 11 12 12 11 12 12 11 10 10 10 10 11 11 11
4 3 8 8 7 7 4 3 4 4 7 6 4 5 13 19 17 15 14 13 12 11 10 10 11 11 10 11 12 11 10 10 11 10 10 9 9 10 10 12 11 10 10 10 9 10 10 10 11
2 4 8 5 4 4 3 2 4 6 7 7 8 11 17 19 17 17 16 15 14 12 11 9 9 9 9 8 10 8 9 9 7 8 8 6 6 6 9 12 10 9 9 9 8 8 9 7 9
1 3 4 2 2 2 1 2 4 5 4 6 11 16 19 19 17 16 15 14 14 13 11 10 9 9 8 7 7 6 6 7 7 7 6 5 5 6 7 8 9 9 8 7 8 7 4 4 5
0 3 2 2 2 2 1 1 3 2 3 5 11 19 20 19 17 16 15 14 13 12 12 10 10 8 7 6 6 5 5 5 5 6 5 6 4 4 5 4 5 6 5 4 4 4 4 3 4
0 1 2 3 3 2 2 3 2 2 4 9 14 18 19 18 16 14 13 12 12 12 12 11 10 9 8 6 5 6 5 5 5 5 5 4 5 4 5 3 3 3 4 5 4 3 3 3 4
1 3 3 2 1 2 2 3 3 2 7 11 15 16 17 16 16 14 13 13 13 13 12 11 11 10 9 7 6 5 5 5 5 5 6 6 4 4 4 5 4 3 3 3 3 3 3 2 3
3 4 3 2 1 2 3 4 3 5 9 11 13 14 15 15 15 14 14 13 13 13 12 12 12 11 10 9 8 6 6 6 6 5 6 6 5 5 4 4 4 4 4 4 3 3 3 3 3
6 7 5 3 1 1 6 2 5 7 9 10 12 13 13 13 14 13 13 12 12 12 12 12 11 12 11 9 8 7 6 6 6 6 6 6 5 5 5 4 4 4 4 4 3 3 3 2 3
8 7 4 4 2 1 5 0 4 5 8 9 11 12 13 13 13 12 12 12 12 12 12 12 12 12 12 10 9 8 7 7 7 7 7 7 6 6 6 5 3 5 4 4 4 4 4 4 3
6 5 4 3 1 3 4 1 3 4 7 8 9 11 12 12 12 12 11 11 11 11 12 12 12 12 11 9 8 7 7 7 7 7 7 6 6 7 7 6 5 5 4 4 3 3 3 3 4
3 4 4 2 1 3 3 3 2 4 6 7 8 10 11 11 11 11 11 11 11 11 11 12 12 12 10 9 9 8 8 8 7 8 8 8 8 8 7 5 5 5 4 4 5 4 5 5 4
6 7 5 3 1 3 3 3 3 4 5 5 7 9 10 10 10 11 11 11 11 11 11 12 12 12 12 9 8 6 6 6 6 6 7 9 9 9 9 8 7 6 4 5 5 5 5 4 5
8 7 4 2 2 4 5 6 5 5 5 6 7 8 9 10 11 11 11 11 11 11 11 11 12 11 11 10 7 5 4 4 5 6 7 9 10 10 9 9 8 6 7 6 6 6 7 5 5
8 4 4 4 6 4 4 5 4 4 6 7 8 9 9 10 10 10 11 11 11 10 10 10 10 10 10 9 9 9 7 7 7 6 6 7 9 9 9 9 8 7 6 5 7 7 6 7 6
3 3 4 5 6 7 6 7 2 5 5 6 7 8 9 9 10 11 11 10 9 9 9 9 9 9 9 9 9 8 8 6 5 5 6 6 7 8 8 8 8 7 7 7 6 5 7 7 7
5 6 4 6 8 9 5 7 4 2 2 1 4 6 8 9 10 10 10 10 9 9 8 8 8 8 8 9 9 9 8 7 6 6 6 6 5 5 7 8 7 7 7 7 7 6 8 7 7
10 10 7 8 8 7 3 6 3 1 1 2 2 5 8 10 10 11 11 11 10 9 9 8 8 8 8 8 8 8 8 8 8 7 7 7 6 6 6 6 6 6 7 7 7 7 7 7 7
15 14 9 7 7 5 6 6 2 1 1 1 2 5 9 11 11 11 11 11 10 10 9 9 8 8 8 7 7 7 7 6 5 7 6 7 6 6 6 7 6 7 7 7 7 6 7 7 7
13 14 12 8 6 7 5 4 4 3 3 3 4 7 10 11 11 11 11 10 10 10 10 9 8 7 7 7 6 6 6 6 5 5 6 6 5 5 6 6 6 6 6 6 6 5 6 6 7
9 11 8 10 7 9 6 7 4 4 3 4 6 8 10 11 11 11 11 10 10 10 9 9 8 7 6 6 5 5 4 4 4 4 4 4 4 5 5 6 6 6 6 6 6 6 6 6 6
11 12 10 11 9 8 6 3 2 2 2 4 6 8 9 11 11 11 11 11 11 10 9 9 8 7 6 6 5 4 4 3 3 3 3 3 3 4 4 5 5 6 6 6 6 6 6 7 6
15 15 14 11 9 9 9 3 5 2 2 4 6 8 9 10 11 11 12 11 10 10 9 8 8 7 6 6 5 5 4 3 3 3 2 2 3 3 4 5 5 6 6 5 6 7 6 6 6
Wind_Direction
195 199 229 243 153 74 67 65 67 75 74 75 77 61 61 49 43 92 120 133 134 135 131 135 128 123 118 116 115 114 113 112 112 111 110 109 108 106 105 105 105 104 103 101 101 104 105 105 107
196 214 238 241 74 76 70 66 69 67 87 100 85 76 73 68 68 110 132 136 140 136 136 134 130 127 123 120 118 116 115 114 112 111 110 108 108 107 107 106 104 104 104 103 102 102 104 104 106
213 241 277 76 66 67 74 74 82 88 94 90 83 66 63 81 108 125 135 142 141 134 132 130 136 130 126 122 120 118 117 116 114 111 109 108 107 107 106 105 103 103 103 104 103 103 104 104 104
242 232 217 76 75 69 74 87 98 104 94 85 98 89 83 84 111 129 139 145 140 140 140 133 139 132 128 125 123 122 120 117 113 111 109 109 108 107 105 104 103 102 103 103 104 105 104 105 107
249 253 102 83 77 78 82 88 95 89 88 96 99 101 94 84 117 133 144 147 146 143 138 136 139 134 130 126 124 122 120 116 113 112 109 108 109 108 106 104 104 104 103 103 103 106 104 105 108
243 219 87 82 82 84 90 104 99 93 99 107 112 110 95 117 135 143 148 151 147 144 141 135 139 137 134 130 127 123 120 117 115 113 111 108 108 107 107 106 106 105 104 104 104 106 106 104 106
322 75 81 82 87 87 77 96 93 98 109 111 117 113 121 140 143 147 149 150 149 147 143 146 148 145 139 133 130 127 123 120 116 114 113 113 113 109 109 108 108 108 106 106 105 107 108 109 110
313 115 95 83 79 77 84 103 93 106 107 119 131 130 146 150 150 149 150 153 154 153 151 151 152 149 151 143 137 132 128 125 120 117 118 121 121 118 121 120 111 111 109 106 105 109 112 115 115
275 119 85 73 68 77 92 115 114 115 128 137 110 100 132 145 151 153 155 159 160 160 157 159 154 155 155 147 143 145 138 133 136 131 132 150 140 130 135 107 113 113 111 106 105 114 122 128 125
282 90 76 57 39 56 91 132 143 158 155 146 126 115 132 148 158 163 166 167 168 168 168 164 163 157 159 150 148 155 152 146 151 137 145 139 120 120 113 116 119 118 118 118 112 127 151 168 133
348 57 61 57 20 2 132 147 172 186 167 172 161 149 151 157 165 171 173 173 170 172 172 168 166 162 168 156 160 158 147 149 151 141 145 133 142 141 135 138 141 141 154 145 141 169 148 122 104
65 64 2 341 345 301 260 171 179 208 69 116 152 154 158 166 173 177 176 175 172 176 177 174 168 170 175 167 163 168 166 163 154 150 170 154 150 153 140 148 145 153 150 139 156 143 123 117 120
183 17 339 313 287 271 237 211 202 165 121 125 140 155 164 170 175 178 176 176 176 180 181 177 174 173 175 175 186 180 181 175 163 164 173 177 170 165 149 143 155 162 146 157 169 152 136 147 147
342 305 297 291 231 181 215 181 188 144 140 145 154 163 171 174 175 176 177 181 184 186 183 179 180 180 180 183 191 187 189 187 180 182 178 195 188 168 168 168 173 171 173 161 173 156 166 179 154
260 260 221 151 176 169 229 194 180 144 153 160 165 168 172 177 179 183 185 187 188 189 187 185 185 185 187 192 194 196 194 191 191 183 186 198 199 183 192 182 188 181 172 173 192 179 187 184 177
233 234 207 133 161 191 251 140 109 151 166 169 171 170 175 180 185 188 187 190 191 191 189 190 192 189 190 195 199 202 203 200 198 190 192 203 204 198 208 202 193 184 198 193 189 202 199 190 190
215 221 202 146 129 259 253 37 103 162 178 176 177 175 178 180 189 190 191 192 192 193 191 191 196 195 194 193 197 204 204 207 204 198 202 203 208 208 213 212 197 202 209 211 223 188 210 196 201
203 210 200 179 115 271 245 234 130 168 189 187 182 180 182 185 190 189 190 191 190 192 193 193 194 197 195 194 196 205 208 209 209 208 210 212 211 213 222 215 206 218 211 214 225 214 224 221 219
233 234 210 144 27 267 244 240 183 174 192 192 188 185 187 189 183 183 186 188 187 189 192 196 197 194 193 194 198 203 208 209 210 211 207 211 218 217 221 229 207 221 219 229 219 219 210 220 220
224 226 210 170 98 272 251 238 193 189 203 205 198 190 187 181 177 180 184 185 190 191 192 194 198 196 198 198 200 208 213 214 212 213 206 214 216 217 215 224 223 220 219 230 233 230 234 226 214
220 233 229 229 239 219 253 221 188 181 196 200 204 199 192 186 182 182 184 186 191 193 193 194 196 196 199 199 197 196 201 218 214 212 211 214 215 218 223 221 228 227 231 225 230 229 230 235 227
212 216 236 238 248 224 255 264 177 186 203 204 203 200 196 189 184 180 181 184 190 191 190 194 195 196 195 195 199 200 208 214 218 219 215 214 215 219 221 224 228 229 233 225 232 230 231 237 238
205 168 215 236 248 256 228 270 206 168 214 203 198 198 194 186 179 178 179 179 181 184 185 187 189 191 192 196 202 210 220 226 223 217 216 219 217 221 224 224 226 224 230 227 235 235 238 235 242
170 177 192 229 241 244 240 264 259 194 237 219 180 187 186 181 175 173 172 169 171 176 179 179 182 188 190 196 204 212 219 222 218 218 216 219 217 220 223 225 225 223 224 220 223 228 233 243 248
203 209 212 217 223 235 174 251 267 33 323 292 226 182 176 174 170 168 166 167 169 172 173 173 178 185 188 196 206 214 221 224 222 223 220 221 217 216 217 221 221 226 224 221 221 222 238 238 240
209 219 230 239 234 210 187 243 242 92 296 270 202 170 165 166 166 166 165 165 167 166 168 171 178 182 184 193 204 212 220 225 225 226 223 220 221 216 219 219 219 223 227 226 220 226 229 236 238
204 223 241 248 255 253 227 238 249 195 190 165 153 155 159 161 163 164 162 163 161 162 165 169 172 178 183 188 191 200 211 220 224 222 222 220 217 214 216 219 217 221 223 224 223 228 232 235 239
236 216 216 233 235 243 231 239 241 179 160 153 158 161 157 158 161 159 159 159 158 158 158 163 168 172 174 179 185 185 191 202 214 212 206 212 215 218 219 218 218 220 218 216 222 227 232 237 241
195 206 217 228 238 247 242 222 139 174 161 168 164 160 158 161 161 159 158 156 153 152 154 158 160 162 164 169 169 168 169 179 185 191 199 203 210 211 217 219 219 221 220 218 217 226 231 235 240
210 212 209 216 221 240 263 236 121 167 185 168 162 155 154 157 158 157 155 153 153 153 154 157 158 158 158 157 158 158 160 165 172 175 190 200 207 215 218 219 222 225 225 224 224 228 232 235 241
Height
1508 1507 1507 1508 1502 1502 1511 1509 1506 1508 1511 1516 1518 1517 1518 1521 1523 1535 1540 1541 1544 1546 1547 1547 1549 1551 1552 1553 1554 1555 1556 1556 1557 1558 1558 1559 1559 1560 1560 1561 1562 1562 1563 1563 1564 1565 1565 1566 1567
1509 1508 1510 1506 1500 1513 1517 1510 1511 1513 1517 1519 1520 1521 1522 1528 1532 1536 1539 1542 1546 1548 1549 1550 1551 1553 1554 1555 1556 1557 1558 1558 1559 1560 1560 1561 1562 1562 1563 1563 1564 1565 1565 1566 1566 1567 1567 1568 1569
1510 1510 1510 1499 1505 1513 1516 1512 1514 1517 1519 1520 1522 1524 1527 1533 1537 1539 1541 1544 1548 1550 1551 1551 1553 1555 1556 1557 1558 1559 1560 1561 1561 1562 1563 1563 1564 1565 1565 1566 1566 1567 1567 1568 1569 1569 1570 1570 1571
1513 1512 1508 1502 1511 1511 1511 1513 1515 1517 1521 1522 1523 1527 1533 1538 1539 1541 1543 1546 1549 1551 1553 1553 1555 1557 1558 1559 1560 1561 1562 1563 1563 1564 1565 1565 1566 1567 1567 1568 1569 1569 1570 1570 1571 1572 1572 1573 1573
1514 1509 1502 1507 1511 1511 1512 1515 1516 1516 1520 1524 1525 1529 1535 1539 1540 1542 1545 1548 1551 1554 1556 1555 1557 1558 1560 1561 1562 1563 1564 1565 1565 1566 1567 1568 1568 1569 1570 1570 1571 1572 1572 1573 1574 1574 1575 1575 1576
1513 1504 1505 1513 1514 1512 1513 1517 1517 1519 1523 1526 1527 1530 1538 1541 1542 1545 1548 1551 1554 1556 1558 1557 1558 1560 1562 1563 1564 1565 1566 1567 1567 1568 1569 1570 1570 1571 1572 1572 1573 1574 1575 1575 1576 1577 1577 1577 1578
1511 1503 1509 1511 1514 1513 1515 1518 1518 1520 1524 1527 1529 1531 1539 1542 1545 1547 1550 1553 1555 1557 1559 1559 1560 1561 1563 1564 1566 1567 1568 1568 1569 1570 1571 1572 1572 1573 1574 1574 1575 1576 1577 1578 1578 1579 1579 1580 1580
1513 1505 1509 1511 1514 1515 1517 1518 1520 1522 1525 1530 1531 1532 1538 1542 1545 1548 1551 1554 1556 1558 1560 1561 1563 1564 1565 1566 1567 1568 1569 1570 1571 1572 1572 1573 1574 1575 1576 1576 1577 1578 1579 1580 1581 1581 1582 1582 1583
1514 1507 1513 1513 1514 1515 1517 1518 1522 1524 1527 1530 1532 1533 1537 1540 1544 1548 1551 1554 1556 1559 1561 1563 1565 1566 1567 1569 1568 1570 1570 1571 1572 1573 1574 1575 1577 1578 1579 1578 1579 1580 1581 1582 1583 1583 1584 1584 1585
1512 1509 1514 1514 1514 1514 1517 1518 1521 1523 1526 1529 1533 1535 1537 1540 1544 1547 1550 1553 1556 1558 1561 1563 1565 1566 1568 1570 1570 1572 1573 1573 1574 1575 1576 1577 1578 1580 1580 1579 1580 1581 1582 1583 1584 1585 1586 1587 1588
1513 1512 1514 1515 1516 1516 1516 1518 1520 1520 1521 1526 1531 1535 1537 1541 1544 1548 1551 1553 1556 1558 1561 1563 1565 1566 1569 1570 1571 1573 1574 1574 1575 1576 1577 1578 1579 1581 1582 1582 1582 1583 1584 1586 1586 1587 1589 1589 1589
1515 1516 1517 1516 1517 1517 1516 1517 1519 1520 1522 1526 1529 1533 1536 1540 1544 1547 1550 1553 1556 1558 1560 1563 1564 1566 1568 1570 1572 1573 1574 1575 1576 1576 1578 1579 1580 1581 1583 1583 1584 1585 1586 1587 1588 1589 1589 1590 1590
1516 1516 1517 1517 1517 1517 1518 1517 1519 1521 1525 1527 1530 1533 1537 1540 1544 1548 1550 1553 1555 1557 1559 1561 1563 1565 1567 1568 1570 1572 1574 1575 1576 1576 1577 1579 1581 1582 1583 1583 1584 1586 1587 1588 1588 1590 1590 1590 1591
1517 1517 1516 1515 1516 1517 1517 1517 1519 1522 1525 1528 1531 1534 1537 1540 1544 1547 1549 1551 1553 1555 1558 1560 1562 1564 1566 1568 1569 1571 1573 1574 1576 1577 1578 1579 1581 1582 1583 1583 1584 1586 1587 1588 1589 1590 1590 1591 1591
1518 1515 1513 1513 1515 1516 1516 1515 1517 1521 1525 1528 1531 1534 1537 1540 1543 1545 1547 1550 1552 1554 1557 1559 1561 1563 1564 1567 1568 1570 1572 1574 1575 1576 1577 1578 1580 1581 1582 1584 1585 1586 1587 1587 1588 1589 1590 1590 1591
1514 1513 1513 1513 1514 1515 1516 1515 1516 1521 1524 1527 1530 1533 1536 1540 1542 1545 1547 1549 1551 1553 1555 1557 1560 1561 1563 1565 1567 1569 1571 1573 1574 1576 1577 1577 1579 1580 1581 1583 1585 1585 1587 1587 1588 1589 1590 1590 1591
1513 1514 1513 1514 1513 1513 1513 1513 1516 1520 1522 1525 1529 1532 1535 1538 1541 1543 1545 1547 1549 1551 1554 1556 1558 1559 1562 1563 1565 1567 1569 1571 1573 1574 1576 1577 1578 1579 1581 1582 1584 1584 1586 1587 1588 1589 1590 1590 1590
1515 1513 1515 1515 1513 1513 1512 1512 1515 1519 1521 1523 1527 1531 1534 1536 1539 1541 1543 1546 1548 1550 1552 1554 1555 1557 1559 1562 1563 1565 1567 1569 1571 1572 1574 1576 1577 1578 1580 1581 1582 1584 1585 1586 1587 1587 1588 1589 1589
1514 1515 1516 1515 1514 1514 1513 1513 1513 1517 1519 1521 1525 1528 1532 1535 1538 1540 1542 1544 1546 1548 1549 1551 1553 1555 1557 1559 1561 1563 1565 1567 1569 1570 1572 1573 1575 1577 1578 1580 1581 1582 1584 1585 1586 1587 1587 1588 1589
1516 1517 1516 1515 1515 1514 1513 1512 1512 1516 1518 1520 1523 1526 1530 1533 1536 1538 1540 1542 1544 1545 1547 1549 1551 1553 1555 1557 1559 1561 1563 1565 1567 1568 1569 1571 1573 1574 1576 1577 1579 1581 1582 1583 1584 1585 1586 1587 1588
1517 1516 1516 1517 1515 1512 1513 1513 1511 1514 1517 1520 1522 1524 1527 1530 1534 1536 1538 1540 1541 1543 1545 1547 1549 1551 1553 1555 1557 1559 1560 1562 1564 1565 1567 1568 1570 1572 1574 1575 1577 1578 1580 1581 1581 1583 1584 1585 1586
1518 1515 1517 1518 1517 1513 1515 1518 1510 1509 1513 1516 1519 1521 1524 1528 1531 1534 1536 1537 1539 1541 1543 1545 1547 1549 1550 1552 1554 1556 1558 1559 1561 1563 1564 1566 1567 1569 1571 1573 1574 1576 1577 1578 1579 1581 1582 1583 1584
1514 1515 1516 1516 1516 1516 1513 1518 1508 1508 1510 1510 1514 1518 1522 1526 1529 1531 1534 1535 1538 1540 1541 1543 1545 1546 1548 1550 1552 1554 1555 1557 1559 1560 1561 1562 1564 1566 1568 1569 1571 1572 1574 1576 1577 1578 1579 1580 1582
1516 1517 1517 1515 1513 1526 1517 1522 1515 1503 1507 1507 1511 1516 1520 1523 1527 1530 1532 1534 1536 1539 1540 1542 1543 1545 1546 1548 1550 1551 1553 1554 1556 1557 1558 1560 1561 1563 1565 1566 1568 1569 1571 1572 1573 1575 1576 1577 1578
1515 1518 1527 1529 1528 1523 1515 1520 1513 1503 1505 1507 1510 1514 1518 1521 1525 1528 1531 1533 1535 1537 1539 1540 1541 1543 1545 1546 1548 1549 1551 1552 1553 1554 1556 1557 1558 1560 1561 1563 1564 1566 1567 1569 1570 1571 1573 1574 1575
1511 1510 1523 1532 1527 1518 1519 1518 1505 1502 1506 1508 1510 1512 1516 1520 1523 1526 1529 1531 1534 1536 1538 1539 1540 1542 1544 1545 1546 1548 1549 1550 1551 1552 1553 1554 1556 1557 1558 1560 1561 1562 1564 1566 1567 1568 1569 1570 1571
1509 1508 1499 1509 1516 1520 1513 1510 1502 1501 1504 1507 1509 1512 1515 1518 1522 1525 1528 1531 1533 1535 1537 1539 1540 1541 1543 1544 1545 1546 1547 1548 1549 1550 1550 1552 1553 1555 1556 1557 1558 1560 1561 1562 1564 1565 1566 1568 1568
1502 1500 1508 1512 1527 1529 1519 1515 1507 1502 1502 1504 1508 1510 1514 1518 1521 1525 1528 1530 1532 1535 1536 1538 1539 1541 1542 1543 1545 1546 1546 1547 1547 1548 1549 1550 1551 1553 1554 1555 1556 1557 1558 1560 1561 1562 1563 1564 1565
1508 1507 1505 1506 1507 1521 1524 1513 1494 1498 1500 1503 1506 1510 1513 1517 1520 1524 1527 1529 1532 1534 1536 1537 1539 1540 1541 1542 1544 1544 1545 1546 1546 1547 1548 1548 1550 1551 1552 1553 1554 1555 1556 1557 1558 1559 1560 1561 1562
1496 1498 1503 1513 1517 1513 1513 1508 1493 1496 1499 1502 1506 1510 1513 1517 1520 1523 1526 1529 1531 1533 1535 1537 1538 1539 1541 1542 1542 1543 1544 1545 1545 1546 1547 1547 1548 1549 1550 1551 1551 1552 1553 1554 1555 1556 1557 1558 1559